Home   Weather   Cruz Bay   Past weeks

Flag for US Virgin Islands Past Weather in Cruz Bay, US Virgin Islands — Yesterday and Last 2 Weeks

Now
77 °F

Sunny.


Feels Like: 79 °F
Forecast: 77 / 83 °F
Wind: 12 mph from East

Location: Cyril E. King International Airport

Current Time: Apr 27, 2017 at 7:24:22 am

Latest Report: Apr 27, 2017 at 6:53 am


Visibility: 10 mi

Pressure: 29.99 "Hg

Humidity: 79%

Dew Point: 70 °F

Location of Cruz BayLocation

Past Weather in Cruz Bay — Graph

°F

Cruz Bay Temperature Yesterday

Maximum temperature yesterday: 82 °F (at 10:53 am)
Minimum temperature yesterday: 76 °F (at 11:53 pm)
Average temperature yesterday: 79 °F

High & Low Weather Summary for the Past Weeks

 TemperatureHumidityPressure
High86 °F (Apr 17, 11:53 am)100% (Apr 13, 3:53 am)30.07 "Hg (Apr 13, 3:53 am)
Low72 °F (Apr 13, 3:53 am)49% (Apr 19, 3:53 pm)29.88 "Hg (Apr 12, 3:53 pm)
Average79 °F77%29.97 "Hg
* Reported Apr 12 5:53 am — Apr 27 5:53 am, Cruz Bay, Weather by CustomWeather, © 2017

Note: Actual official high and low records may vary slightly from our data, if they occured in-between our weather recording intervals... More about our weather records

Advertising

Cruz Bay Weather History for the Previous 24 Hours

Scroll right to see more
 ConditionsComfort  
Time TempWeatherWind HumidityBarometerVisibility
5:53 am
Thu, Apr 27
75 °FClear.8 mph88%29.98 "Hg10 mi
4:53 am75 °FClear.8 mph88%29.97 "Hg10 mi
3:53 am75 °FClear.10 mph88%29.96 "Hg10 mi
2:53 am75 °FClear.6 mph90%29.96 "Hg10 mi
1:53 am75 °FClear.6 mph90%29.97 "Hg10 mi
12:53 am76 °FClear.5 mph88%29.99 "Hg10 mi
11:53 pm
Wed, Apr 26
76 °FClear.7 mph91%30.00 "Hg10 mi
10:53 pm77 °FClear.7 mph88%30.01 "Hg10 mi
9:53 pm77 °FClear.8 mph88%30.01 "Hg10 mi
8:53 pm77 °FClear.8 mph88%29.99 "Hg10 mi
7:53 pm78 °FClear.8 mph82%29.97 "Hg10 mi
6:53 pm79 °FClear.13 mph82%29.95 "Hg10 mi
5:53 pm80 °FSunny.13 mph81%29.95 "Hg10 mi
4:53 pm80 °FPartly sunny.13 mph79%29.93 "Hg10 mi
3:53 pm82 °FPartly sunny.12 mph77%29.93 "Hg10 mi
2:53 pm82 °FPassing clouds.15 mph77%29.94 "Hg10 mi
1:53 pm82 °FPassing clouds.16 mph77%29.94 "Hg10 mi
12:53 pm82 °FBroken clouds.13 mph77%29.96 "Hg10 mi
11:53 am82 °FPartly sunny.14 mph79%29.98 "Hg10 mi
10:53 am82 °FPassing clouds.13 mph77%29.98 "Hg10 mi
9:53 am81 °FScattered clouds.15 mph82%29.98 "Hg10 mi
8:53 am79 °FBroken clouds.10 mph90%29.97 "Hg10 mi
7:53 am79 °FScattered clouds.9 mph88%29.97 "Hg10 mi
Weather by CustomWeather, © 2017

See weather overviewHow to use our weather pages